,,,PA_Meas_PMT16A,,PR_Meas_QMR101_102,,RH_Meas_QMH101,,SR_Meas_QMS101,,TA_Meas_QMH101,,GenWind,,GenWind,
date,time,status,PA,status,PR,status,RH,status,SR,status,TA,status,DirAvg,status,SpdAvg,
2008-06-29, 00:00:05,VALID,1009.72,VALID,0,VALID,92.0886,VALID,0,VALID,24.8633,VALID,129,VALID,0.506641,
2008-06-29, 00:01:05,VALID,1009.71,VALID,0,VALID,91.9361,VALID,0,VALID,24.8828,VALID,130,VALID,0.539844,
2008-06-29, 00:02:05,VALID,1009.7,VALID,0,VALID,91.8217,VALID,0,VALID,24.8828,VALID,130,VALID,0.334375,
2008-06-29, 00:03:05,VALID,1009.69,VALID,0,VALID,91.9132,VALID,0.105969,VALID,24.842,VALID,130,VALID,0.291406,
2008-06-29, 00:04:05,VALID,1009.64,VALID,0,VALID,91.959,VALID,0,VALID,24.8244,VALID,130,VALID,0.200391,
2008-06-29, 00:05:05,VALID,1009.61,VALID,0,VALID,91.9971,VALID,0,VALID,24.803,VALID,130,VALID,0.247266,
2008-06-29, 00:06:05,VALID,1009.58,VALID,0,VALID,92.02,VALID,0,VALID,24.803,VALID,129,VALID,0.255859,
2008-06-29, 00:07:05,VALID,1009.57,VALID,0,VALID,92.02,VALID,0,VALID,24.8244,VALID,129,VALID,0.433984,
2008-06-29, 00:08:05,VALID,1009.58,VALID,0,VALID,92.02,VALID,0,VALID,24.764,VALID,129,VALID,0.460938,
2008-06-29, 00:09:05,VALID,1009.57,VALID,0,VALID,92.1039,VALID,0,VALID,24.7659,VALID,130,VALID,0.450391,
2008-06-29, 00:10:05,VALID,1009.57,VALID,0,VALID,92.1725,VALID,0,VALID,24.7445,VALID,133,VALID,0.578516,
2008-06-29, 00:11:05,VALID,1009.58,VALID,0,VALID,92.2335,VALID,0,VALID,24.7659,VALID,142,VALID,0.449219,
2008-06-29, 00:12:05,VALID,1009.58,VALID,0,VALID,92.2259,VALID,0,VALID,24.7659,VALID,142,VALID,0.30625,
2008-06-29, 00:13:05,VALID,1009.61,VALID,0,VALID,92.2259,VALID,0,VALID,24.7445,VALID,143,VALID,0.278516,
2008-06-29, 00:14:05,VALID,1009.61,VALID,0,VALID,92.1954,VALID,0,VALID,24.7659,VALID,143,VALID,0.324609,
2008-06-29, 00:15:05,VALID,1009.6,VALID,0,VALID,92.2182,VALID,0,VALID,24.7464,VALID,143,VALID,0.416797,
2008-06-29, 00:16:05,VALID,1009.62,VALID,0,VALID,92.2869,VALID,0,VALID,24.7464,VALID,143,VALID,0.460938,
2008-06-29, 00:17:05,VALID,1009.6,VALID,0,VALID,92.3402,VALID,0,VALID,24.7055,VALID,149,VALID,0.495703,
2008-06-29, 00:18:05,VALID,1009.59,VALID,0,VALID,92.3936,VALID,0,VALID,24.686,VALID,150,VALID,0.462891,
2008-06-29, 00:19:05,VALID,1009.55,VALID,0,VALID,92.4546,VALID,0,VALID,24.7074,VALID,150,VALID,0.557031,
2008-06-29, 00:20:05,VALID,1009.55,VALID,0,VALID,92.5004,VALID,0,VALID,24.686,VALID,150,VALID,0.589844,
2008-06-29, 00:21:05,VALID,1009.49,VALID,0,VALID,92.5156,VALID,0,VALID,24.6879,VALID,150,VALID,0.452344,
2008-06-29, 00:22:05,VALID,1009.49,VALID,0,VALID,92.5614,VALID,0,VALID,24.6684,VALID,149,VALID,0.375,
2008-06-29, 00:23:05,VALID,1009.48,VALID,0,VALID,92.6453,VALID,0,VALID,24.6471,VALID,152,VALID,0.414844,
2008-06-29, 00:24:05,VALID,1009.46,VALID,0,VALID,92.6682,VALID,0,VALID,24.6489,VALID,152,VALID,0.337891,
2008-06-29, 00:25:05,VALID,1009.44,VALID,0,VALID,92.752,VALID,0,VALID,24.6276,VALID,152,VALID,0.2625,
2008-06-29, 00:26:05,VALID,1009.44,VALID,0,VALID,92.8207,VALID,0,VALID,24.6489,VALID,152,VALID,0.142578,
2008-06-29, 00:27:05,VALID,1009.45,VALID,0,VALID,92.8969,VALID,0,VALID,24.6081,VALID,152,VALID,0.214062,
2008-06-29, 00:28:05,VALID,1009.43,VALID,0,VALID,92.9732,VALID,0,VALID,24.6294,VALID,152,VALID,0.0722656,
2008-06-29, 00:29:05,VALID,1009.39,VALID,0,VALID,93.0494,VALID,0,VALID,24.6099,VALID,152,VALID,0,
2008-06-29, 00:30:05,VALID,1009.4,VALID,0,VALID,93.0723,VALID,0,VALID,24.5886,VALID,152,VALID,0,
2008-06-29, 00:31:05,VALID,1009.37,VALID,0,VALID,93.1333,VALID,0.105969,VALID,24.5691,VALID,152,VALID,0,
2008-06-29, 00:32:05,VALID,1009.35,VALID,0,VALID,92.9961,VALID,0.105969,VALID,24.5301,VALID,152,VALID,0,
2008-06-29, 00:33:05,VALID,1009.35,VALID,0,VALID,92.9427,VALID,0.105969,VALID,24.5301,VALID,152,VALID,0,
2008-06-29, 00:34:05,VALID,1009.34,VALID,0,VALID,92.9656,VALID,0,VALID,24.493,VALID,152,VALID,0,
2008-06-29, 00:35:05,VALID,1009.37,VALID,0,VALID,92.9961,VALID,0.105969,VALID,24.4717,VALID,152,VALID,0.0628906,
2008-06-29, 00:36:05,VALID,1009.36,VALID,0,VALID,93.0494,VALID,0,VALID,24.454,VALID,152,VALID,0,
2008-06-29, 00:37:05,VALID,1009.37,VALID,0,VALID,93.1333,VALID,0,VALID,24.4345,VALID,152,VALID,0,
2008-06-29, 00:38:05,VALID,1009.39,VALID,0,VALID,93.141,VALID,0,VALID,24.415,VALID,152,VALID,0.112109,
2008-06-29, 00:39:05,VALID,1009.4,VALID,0,VALID,93.3087,VALID,0,VALID,24.415,VALID,152,VALID,0.221875,
2008-06-29, 00:40:05,VALID,1009.38,VALID,0,VALID,93.3545,VALID,0,VALID,24.3761,VALID,150,VALID,0.299609,
2008-06-29, 00:41:05,VALID,1009.39,VALID,0,VALID,93.3163,VALID,0,VALID,24.3956,VALID,136,VALID,0.313281,
2008-06-29, 00:42:05,VALID,1009.41,VALID,0,VALID,93.0418,VALID,0,VALID,24.3761,VALID,75,VALID,0.437109,
2008-06-29, 00:43:05,VALID,1009.39,VALID,0,VALID,93.1486,VALID,0,VALID,24.3761,VALID,75,VALID,0.459766,
2008-06-29, 00:44:05,VALID,1009.38,VALID,0,VALID,92.8969,VALID,0,VALID,24.3566,VALID,68,VALID,0.549219,
2008-06-29, 00:45:05,VALID,1009.37,VALID,0,VALID,93.0037,VALID,0,VALID,24.3371,VALID,54,VALID,0.410937,
2008-06-29, 00:46:05,VALID,1009.39,VALID,0,VALID,93.1257,VALID,0,VALID,24.3566,VALID,56,VALID,0.426172,
2008-06-29, 00:47:05,VALID,1009.36,VALID,0,VALID,93.0418,VALID,0,VALID,24.3176,VALID,57,VALID,0.515234,
2008-06-29, 00:48:05,VALID,1009.32,VALID,0,VALID,93.0799,VALID,0,VALID,24.2981,VALID,58,VALID,0.416797,
2008-06-29, 00:49:05,VALID,1009.32,VALID,0,VALID,93.0952,VALID,0,VALID,24.2591,VALID,58,VALID,0.324219,
2008-06-29, 00:50:05,VALID,1009.32,VALID,0,VALID,93.202,VALID,0,VALID,24.2396,VALID,62,VALID,0.361719,
2008-06-29, 00:51:05,VALID,1009.3,VALID,0,VALID,93.2172,VALID,0,VALID,24.2007,VALID,75,VALID,0.207813,
2008-06-29, 00:52:05,VALID,1009.3,VALID,0,VALID,93.3087,VALID,0,VALID,24.2025,VALID,74,VALID,0.152734,
2008-06-29, 00:53:05,VALID,1009.29,VALID,0,VALID,93.1257,VALID,0,VALID,24.1422,VALID,75,VALID,0.201172,
2008-06-29, 00:54:05,VALID,1009.26,VALID,0,VALID,93.1105,VALID,0,VALID,24.0837,VALID,75,VALID,0.254297,
2008-06-29, 00:55:05,VALID,1009.26,VALID,0,VALID,93.1486,VALID,0,VALID,24.0643,VALID,75,VALID,0.315625,
2008-06-29, 00:56:05,VALID,1009.26,VALID,0,VALID,93.5527,VALID,0,VALID,24.0448,VALID,74,VALID,0.226953,
2008-06-29, 00:57:05,VALID,1009.24,VALID,0,VALID,93.5299,VALID,0,VALID,24.0271,VALID,74,VALID,0.323828,
2008-06-29, 00:58:05,VALID,1009.2,VALID,0,VALID,93.6595,VALID,0,VALID,23.9863,VALID,75,VALID,0.148438,
2008-06-29, 00:59:05,VALID,1009.22,VALID,0,VALID,93.8425,VALID,0.105969,VALID,23.9845,VALID,75,VALID,0.251172,
2008-06-29, 01:00:05,VALID,1009.23,VALID,0,VALID,93.8883,VALID,0,VALID,23.9863,VALID,74,VALID,0.275,
2008-06-29, 01:01:05,VALID,1009.23,VALID,0,VALID,93.9645,VALID,0.105969,VALID,23.965,VALID,75,VALID,0.189453,
2008-06-29, 01:02:05,VALID,1009.23,VALID,0,VALID,94.1018,VALID,0.105969,VALID,23.965,VALID,75,VALID,0,
2008-06-29, 01:03:05,VALID,1009.24,VALID,0,VALID,94.1781,VALID,0.105969,VALID,23.965,VALID,74,VALID,0.00507812,
2008-06-29, 01:04:05,VALID,1009.21,VALID,0,VALID,94.0637,VALID,0.105969,VALID,23.9863,VALID,75,VALID,0.192578,
2008-06-29, 01:05:05,VALID,1009.23,VALID,0,VALID,94.0027,VALID,0.105969,VALID,23.9455,VALID,74,VALID,0.1375,
2008-06-29, 01:06:05,VALID,1009.23,VALID,0,VALID,93.8196,VALID,0.105969,VALID,23.9455,VALID,75,VALID,0.106641,
2008-06-29, 01:07:05,VALID,1009.23,VALID,0,VALID,93.7434,VALID,0.105969,VALID,23.9065,VALID,75,VALID,0.15,
2008-06-29, 01:08:05,VALID,1009.2,VALID,0,VALID,93.7358,VALID,0.105969,VALID,23.8889,VALID,75,VALID,0.151172,
2008-06-29, 01:09:05,VALID,1009.18,VALID,0,VALID,93.7434,VALID,0.105969,VALID,23.8481,VALID,75,VALID,0,
2008-06-29, 01:10:05,VALID,1009.15,VALID,0,VALID,93.7586,VALID,0.105969,VALID,23.7896,VALID,74,VALID,0.00078125,
2008-06-29, 01:11:05,VALID,1009.12,VALID,0,VALID,93.9188,VALID,0.105969,VALID,23.7896,VALID,75,VALID,0.224219,
2008-06-29, 01:12:05,VALID,1009.14,VALID,0,VALID,93.9417,VALID,0.105969,VALID,23.7507,VALID,75,VALID,0.290234,
2008-06-29, 01:13:05,VALID,1009.13,VALID,0,VALID,93.9874,VALID,0.105969,VALID,23.7312,VALID,75,VALID,0.216016,
2008-06-29, 01:14:05,VALID,1009.11,VALID,0,VALID,94.0789,VALID,0,VALID,23.733,VALID,74,VALID,0.191406,
2008-06-29, 01:15:05,VALID,1009.1,VALID,0,VALID,94.2314,VALID,0,VALID,23.7135,VALID,75,VALID,0.169141,
2008-06-29, 01:16:05,VALID,1009.1,VALID,0,VALID,94.3153,VALID,0,VALID,23.7135,VALID,75,VALID,0.116406,
2008-06-29, 01:17:05,VALID,1009.08,VALID,0,VALID,94.4068,VALID,0,VALID,23.7135,VALID,75,VALID,0,
2008-06-29, 01:18:05,VALID,1009.08,VALID,0,VALID,94.3763,VALID,0,VALID,23.694,VALID,75,VALID,0,
2008-06-29, 01:19:05,VALID,1009.09,VALID,0,VALID,94.3916,VALID,0,VALID,23.6745,VALID,75,VALID,0,
2008-06-29, 01:20:05,VALID,1009.06,VALID,0,VALID,94.445,VALID,0,VALID,23.655,VALID,74,VALID,0,
2008-06-29, 01:21:05,VALID,1009.06,VALID,0,VALID,94.5288,VALID,0,VALID,23.655,VALID,75,VALID,0.00117188,
2008-06-29, 01:22:05,VALID,1009.04,VALID,0,VALID,94.6127,VALID,0,VALID,23.6745,VALID,75,VALID,0.186719,
2008-06-29, 01:23:05,VALID,1009.05,VALID,0,VALID,94.7805,VALID,0,VALID,23.7135,VALID,74,VALID,0.137109,
2008-06-29, 01:24:05,VALID,1009.05,VALID,0,VALID,94.9254,VALID,0,VALID,23.772,VALID,75,VALID,0.155469,
2008-06-29, 01:25:05,VALID,1009.04,VALID,0,VALID,95.0321,VALID,0,VALID,23.8109,VALID,75,VALID,0.214844,
2008-06-29, 01:26:05,VALID,1009.05,VALID,0,VALID,95.1008,VALID,0,VALID,23.8694,VALID,75,VALID,0.164844,
2008-06-29, 01:27:05,VALID,1009.06,VALID,0,VALID,95.1236,VALID,0,VALID,23.8889,VALID,75,VALID,0.242188,
2008-06-29, 01:28:05,VALID,1009.08,VALID,0,VALID,95.1389,VALID,0,VALID,23.9084,VALID,75,VALID,0.224609,
2008-06-29, 01:29:05,VALID,1009.06,VALID,0,VALID,95.1465,VALID,0,VALID,23.9278,VALID,75,VALID,0.230859,
2008-06-29, 01:30:05,VALID,1009.07,VALID,0,VALID,95.1084,VALID,0,VALID,23.9278,VALID,75,VALID,0.276563,
2008-06-29, 01:31:05,VALID,1009.09,VALID,0,VALID,95.0169,VALID,0,VALID,23.9278,VALID,74,VALID,0.180859,
2008-06-29, 01:32:05,VALID,1009.08,VALID,0,VALID,94.8873,VALID,0,VALID,23.8694,VALID,75,VALID,0,
2008-06-29, 01:33:05,VALID,1009.08,VALID,0,VALID,94.7271,VALID,0,VALID,23.8304,VALID,75,VALID,0,
2008-06-29, 01:34:05,VALID,1009.07,VALID,0,VALID,94.5898,VALID,0,VALID,23.7914,VALID,74,VALID,0,
2008-06-29, 01:35:05,VALID,1009.06,VALID,0,VALID,94.5212,VALID,0,VALID,23.772,VALID,74,VALID,0,
2008-06-29, 01:36:05,VALID,1009.06,VALID,0,VALID,94.5288,VALID,0,VALID,23.7525,VALID,74,VALID,0,
2008-06-29, 01:37:05,VALID,1009.07,VALID,0,VALID,94.5441,VALID,0,VALID,23.7525,VALID,74,VALID,0.3125,
2008-06-29, 01:38:05,VALID,1009.09,VALID,0,VALID,94.5136,VALID,0,VALID,23.7543,VALID,75,VALID,0.246094,
2008-06-29, 01:39:05,VALID,1009.08,VALID,0,VALID,94.5822,VALID,0,VALID,23.694,VALID,74,VALID,0.234766,
2008-06-29, 01:40:05,VALID,1009.09,VALID,0,VALID,94.5517,VALID,0,VALID,23.694,VALID,74,VALID,0.301562,
2008-06-29, 01:41:05,VALID,1009.11,VALID,0,VALID,94.5822,VALID,0,VALID,23.694,VALID,75,VALID,0.255078,
2008-06-29, 01:42:05,VALID,1009.09,VALID,0,VALID,94.6356,VALID,0,VALID,23.6745,VALID,74,VALID,0.245312,
2008-06-29, 01:43:05,VALID,1009.1,VALID,0,VALID,94.6814,VALID,0,VALID,23.6745,VALID,75,VALID,0.222656,
2008-06-29, 01:44:05,VALID,1009.11,VALID,0,VALID,94.689,VALID,0,VALID,23.6745,VALID,74,VALID,0.248437,
2008-06-29, 01:45:05,VALID,1009.06,VALID,0,VALID,94.6814,VALID,0,VALID,23.655,VALID,75,VALID,0.192969,
2008-06-29, 01:46:05,VALID,1009.09,VALID,0,VALID,94.7119,VALID,0,VALID,23.6356,VALID,74,VALID,0.228906,
2008-06-29, 01:47:05,VALID,1009.04,VALID,0,VALID,94.7805,VALID,0,VALID,23.6161,VALID,75,VALID,0.217578,
2008-06-29, 01:48:05,VALID,1009.03,VALID,0,VALID,94.7576,VALID,0,VALID,23.5966,VALID,74,VALID,0.196875,
2008-06-29, 01:49:05,VALID,1009,VALID,0,VALID,94.7576,VALID,0,VALID,23.5966,VALID,75,VALID,0.124219,
2008-06-29, 01:50:05,VALID,1009.01,VALID,0,VALID,94.7805,VALID,0,VALID,23.5771,VALID,74,VALID,0.0140625,
2008-06-29, 01:51:05,VALID,1008.98,VALID,0,VALID,94.8034,VALID,0,VALID,23.5576,VALID,75,VALID,0,
2008-06-29, 01:52:05,VALID,1008.97,VALID,0,VALID,94.8262,VALID,0,VALID,23.5576,VALID,75,VALID,0,
2008-06-29, 01:53:05,VALID,1009,VALID,0,VALID,94.8644,VALID,0,VALID,23.5381,VALID,75,VALID,0,
2008-06-29, 01:54:05,VALID,1009.01,VALID,0,VALID,94.8796,VALID,0,VALID,23.5169,VALID,74,VALID,0,
2008-06-29, 01:55:05,VALID,1008.99,VALID,0,VALID,94.9025,VALID,0,VALID,23.4992,VALID,75,VALID,0,
2008-06-29, 01:56:05,VALID,1009.02,VALID,0,VALID,94.9025,VALID,0,VALID,23.4797,VALID,75,VALID,0,
2008-06-29, 01:57:05,VALID,1009,VALID,0,VALID,94.9406,VALID,0,VALID,23.4797,VALID,75,VALID,0,
2008-06-29, 01:58:05,VALID,1009.02,VALID,0,VALID,94.9711,VALID,0,VALID,23.4797,VALID,74,VALID,0,
2008-06-29, 01:59:05,VALID,1009.03,VALID,0,VALID,94.9788,VALID,0,VALID,23.4407,VALID,74,VALID,0.148438,
2008-06-29, 02:00:05,VALID,1009,VALID,0,VALID,94.9635,VALID,0,VALID,23.4194,VALID,75,VALID,0.0808594,
2008-06-29, 02:01:05,VALID,1009.02,VALID,0,VALID,94.994,VALID,0,VALID,23.4407,VALID,75,VALID,0.200391,
2008-06-29, 02:02:05,VALID,1009,VALID,0,VALID,94.9864,VALID,0,VALID,23.4212,VALID,75,VALID,0.154687,
2008-06-29, 02:03:05,VALID,1009,VALID,0,VALID,94.9559,VALID,0,VALID,23.4017,VALID,75,VALID,0.2625,
2008-06-29, 02:04:05,VALID,1008.94,VALID,0,VALID,94.9101,VALID,0,VALID,23.3823,VALID,75,VALID,0.149219,
2008-06-29, 02:05:05,VALID,1008.93,VALID,0,VALID,94.8949,VALID,0,VALID,23.3823,VALID,75,VALID,0.121875,
2008-06-29, 02:06:05,VALID,1008.92,VALID,0,VALID,94.9178,VALID,0,VALID,23.3628,VALID,74,VALID,0.00195313,
2008-06-29, 02:07:05,VALID,1008.9,VALID,0,VALID,94.8873,VALID,0,VALID,23.3433,VALID,74,VALID,0.00664063,
2008-06-29, 02:08:05,VALID,1008.86,VALID,0,VALID,94.9483,VALID,0,VALID,23.3433,VALID,74,VALID,0,
2008-06-29, 02:09:05,VALID,1008.87,VALID,0,VALID,94.9788,VALID,0,VALID,23.3238,VALID,75,VALID,0.132422,
2008-06-29, 02:10:05,VALID,1008.86,VALID,0,VALID,95.0626,VALID,0,VALID,23.3823,VALID,75,VALID,0.165234,
2008-06-29, 02:11:05,VALID,1008.86,VALID,0,VALID,95.1008,VALID,0,VALID,23.3628,VALID,74,VALID,0.132422,
2008-06-29, 02:12:05,VALID,1008.86,VALID,0,VALID,95.1618,VALID,0,VALID,23.4017,VALID,75,VALID,0,
2008-06-29, 02:13:05,VALID,1008.85,VALID,0,VALID,95.238,VALID,0,VALID,23.4212,VALID,75,VALID,0,
2008-06-29, 02:14:05,VALID,1008.82,VALID,0,VALID,95.299,VALID,0,VALID,23.4602,VALID,74,VALID,0,
2008-06-29, 02:15:05,VALID,1008.81,VALID,0,VALID,95.3753,VALID,0,VALID,23.4797,VALID,75,VALID,0,
2008-06-29, 02:16:05,VALID,1008.82,VALID,0,VALID,95.2838,VALID,0,VALID,23.4407,VALID,75,VALID,0,
2008-06-29, 02:17:05,VALID,1008.81,VALID,0,VALID,95.1999,VALID,0,VALID,23.4017,VALID,74,VALID,0,
2008-06-29, 02:18:05,VALID,1008.82,VALID,0,VALID,95.1389,VALID,0,VALID,23.3628,VALID,74,VALID,0,
2008-06-29, 02:19:05,VALID,1008.82,VALID,0,VALID,95.1313,VALID,0,VALID,23.3433,VALID,75,VALID,0,
2008-06-29, 02:20:05,VALID,1008.82,VALID,0,VALID,95.1542,VALID,0,VALID,23.3238,VALID,74,VALID,0,
2008-06-29, 02:21:05,VALID,1008.81,VALID,0,VALID,95.1465,VALID,0,VALID,23.3256,VALID,74,VALID,0,
2008-06-29, 02:22:05,VALID,1008.83,VALID,0,VALID,95.1542,VALID,0,VALID,23.2848,VALID,74,VALID,0,
2008-06-29, 02:23:05,VALID,1008.8,VALID,0,VALID,95.1618,VALID,0,VALID,23.2848,VALID,75,VALID,0,
2008-06-29, 02:24:05,VALID,1008.81,VALID,0,VALID,95.1465,VALID,0,VALID,23.2654,VALID,75,VALID,0,
2008-06-29, 02:25:05,VALID,1008.76,VALID,0,VALID,95.1313,VALID,0,VALID,23.2264,VALID,75,VALID,0,
2008-06-29, 02:26:05,VALID,1008.76,VALID,0,VALID,95.055,VALID,0,VALID,23.1679,VALID,74,VALID,0.283984,
2008-06-29, 02:27:05,VALID,1008.73,VALID,0,VALID,95.055,VALID,0,VALID,23.1679,VALID,75,VALID,0.338672,
2008-06-29, 02:28:05,VALID,1008.73,VALID,0,VALID,95.0016,VALID,0,VALID,23.1095,VALID,75,VALID,0.305078,
2008-06-29, 02:29:05,VALID,1008.72,VALID,0,VALID,94.9788,VALID,0,VALID,23.09,VALID,75,VALID,0.328906,
2008-06-29, 02:30:05,VALID,1008.73,VALID,0,VALID,94.9635,VALID,0.105969,VALID,23.0511,VALID,74,VALID,0.252344,
2008-06-29, 02:31:05,VALID,1008.71,VALID,0,VALID,94.9178,VALID,0,VALID,22.9909,VALID,74,VALID,0.139062,
2008-06-29, 02:32:05,VALID,1008.72,VALID,0,VALID,94.9483,VALID,0,VALID,23.0121,VALID,75,VALID,0.137109,
2008-06-29, 02:33:05,VALID,1008.71,VALID,0,VALID,95.0398,VALID,0,VALID,23.0316,VALID,74,VALID,0.186328,
2008-06-29, 02:34:05,VALID,1008.74,VALID,0,VALID,95.0398,VALID,0,VALID,23.0121,VALID,75,VALID,0.0410156,
2008-06-29, 02:35:05,VALID,1008.73,VALID,0,VALID,95.0855,VALID,0,VALID,23.0121,VALID,75,VALID,0.00351562,
2008-06-29, 02:36:05,VALID,1008.72,VALID,0,VALID,95.116,VALID,0.105969,VALID,23.0121,VALID,74,VALID,0,
2008-06-29, 02:37:05,VALID,1008.73,VALID,0,VALID,95.1389,VALID,0,VALID,23.0121,VALID,74,VALID,0.257813,
2008-06-29, 02:38:05,VALID,1008.73,VALID,0,VALID,95.1923,VALID,0,VALID,22.9909,VALID,74,VALID,0.324219,
2008-06-29, 02:39:05,VALID,1008.78,VALID,0,VALID,95.1999,VALID,0,VALID,23.0121,VALID,75,VALID,0.245703,
2008-06-29, 02:40:05,VALID,1008.77,VALID,0,VALID,95.1923,VALID,0.105969,VALID,22.9909,VALID,74,VALID,0.208203,
2008-06-29, 02:41:05,VALID,1008.76,VALID,0,VALID,95.1465,VALID,0,VALID,22.9731,VALID,75,VALID,0.20625,
2008-06-29, 02:42:05,VALID,1008.79,VALID,0,VALID,95.1542,VALID,0,VALID,22.9731,VALID,75,VALID,0.15625,
2008-06-29, 02:43:05,VALID,1008.81,VALID,0,VALID,95.1694,VALID,0,VALID,22.9519,VALID,75,VALID,0.174219,
2008-06-29, 02:44:04,VALID,1008.83,VALID,0,VALID,95.1618,VALID,0,VALID,22.9536,VALID,75,VALID,0.173438,
2008-06-29, 02:45:04,VALID,1008.81,VALID,0,VALID,95.1542,VALID,0,VALID,22.9342,VALID,74,VALID,0.142969,
2008-06-29, 02:46:04,VALID,1008.8,VALID,0,VALID,95.1465,VALID,0.105969,VALID,22.9147,VALID,75,VALID,0.10625,
2008-06-29, 02:47:04,VALID,1008.83,VALID,0,VALID,95.1847,VALID,0,VALID,22.9147,VALID,75,VALID,0.154687,
2008-06-29, 02:48:04,VALID,1008.78,VALID,0,VALID,95.2075,VALID,0,VALID,22.9147,VALID,74,VALID,0.149219,
2008-06-29, 02:49:04,VALID,1008.81,VALID,0,VALID,95.1999,VALID,0,VALID,22.9147,VALID,75,VALID,0.111719,
2008-06-29, 02:50:04,VALID,1008.83,VALID,0,VALID,95.2228,VALID,0,VALID,22.9147,VALID,74,VALID,0.105078,
2008-06-29, 02:51:04,VALID,1008.81,VALID,0,VALID,95.2457,VALID,0,VALID,22.8952,VALID,75,VALID,0,
2008-06-29, 02:52:04,VALID,1008.83,VALID,0,VALID,95.2914,VALID,0,VALID,22.8952,VALID,74,VALID,0,
2008-06-29, 02:53:04,VALID,1008.84,VALID,0,VALID,95.3219,VALID,0,VALID,22.8952,VALID,74,VALID,0.00664063,
2008-06-29, 02:54:04,VALID,1008.81,VALID,0,VALID,95.3677,VALID,0.105969,VALID,22.9342,VALID,75,VALID,0.0859375,
2008-06-29, 02:55:04,VALID,1008.81,VALID,0,VALID,95.3905,VALID,0,VALID,22.9147,VALID,74,VALID,0.164063,
2008-06-29, 02:56:04,VALID,1008.79,VALID,0,VALID,95.3905,VALID,0.105969,VALID,22.9342,VALID,74,VALID,0.205078,
2008-06-29, 02:57:04,VALID,1008.79,VALID,0,VALID,95.3829,VALID,0,VALID,22.9147,VALID,75,VALID,0.307031,
2008-06-29, 02:58:04,VALID,1008.8,VALID,0,VALID,95.3829,VALID,0,VALID,22.8952,VALID,75,VALID,0.365625,
2008-06-29, 02:59:04,VALID,1008.79,VALID,0,VALID,95.3524,VALID,0,VALID,22.8757,VALID,63,VALID,0.354297,
2008-06-29, 03:00:04,VALID,1008.79,VALID,0,VALID,95.3219,VALID,0,VALID,22.8368,VALID,63,VALID,0.339063,
2008-06-29, 03:01:04,VALID,1008.77,VALID,0,VALID,95.3448,VALID,0,VALID,22.8368,VALID,61,VALID,0.408984,
2008-06-29, 03:02:04,VALID,1008.77,VALID,0,VALID,95.3372,VALID,0.105969,VALID,22.8562,VALID,9,VALID,0.464453,
2008-06-29, 03:03:04,VALID,1008.78,VALID,0,VALID,95.3829,VALID,0,VALID,22.8368,VALID,355,VALID,0.416016,
2008-06-29, 03:04:04,VALID,1008.78,VALID,0,VALID,95.3677,VALID,0,VALID,22.8173,VALID,354,VALID,0.327734,
2008-06-29, 03:05:04,VALID,1008.81,VALID,0,VALID,95.36,VALID,0,VALID,22.7978,VALID,354,VALID,0.183594,
2008-06-29, 03:06:04,VALID,1008.8,VALID,0,VALID,95.3143,VALID,0,VALID,22.7978,VALID,354,VALID,0.165234,
2008-06-29, 03:07:04,VALID,1008.81,VALID,0,VALID,95.3143,VALID,0,VALID,22.7588,VALID,354,VALID,0.204297,
2008-06-29, 03:08:04,VALID,1008.77,VALID,0,VALID,95.36,VALID,0,VALID,22.7588,VALID,354,VALID,0.194141,
2008-06-29, 03:09:04,VALID,1008.77,VALID,0,VALID,95.3524,VALID,0,VALID,22.7394,VALID,354,VALID,0.158984,
2008-06-29, 03:10:04,VALID,1008.76,VALID,0,VALID,95.3524,VALID,0,VALID,22.7588,VALID,354,VALID,0,
2008-06-29, 03:11:04,VALID,1008.79,VALID,0,VALID,95.3753,VALID,0,VALID,22.7588,VALID,354,VALID,0,
2008-06-29, 03:12:04,VALID,1008.78,VALID,0,VALID,95.3829,VALID,0,VALID,22.7199,VALID,354,VALID,0,
2008-06-29, 03:13:04,VALID,1008.75,VALID,0,VALID,95.3753,VALID,0,VALID,22.7199,VALID,354,VALID,0,
2008-06-29, 03:14:04,VALID,1008.78,VALID,0,VALID,95.3753,VALID,0,VALID,22.7004,VALID,354,VALID,0,
2008-06-29, 03:15:04,VALID,1008.8,VALID,0,VALID,95.3677,VALID,0,VALID,22.7004,VALID,354,VALID,0,
2008-06-29, 03:16:04,VALID,1008.77,VALID,0,VALID,95.3982,VALID,0,VALID,22.7004,VALID,354,VALID,0,
2008-06-29, 03:17:04,VALID,1008.78,VALID,0,VALID,95.4211,VALID,0,VALID,22.7199,VALID,354,VALID,0,
2008-06-29, 03:18:04,VALID,1008.79,VALID,0,VALID,95.4363,VALID,0,VALID,22.7199,VALID,354,VALID,0,
2008-06-29, 03:19:04,VALID,1008.79,VALID,0,VALID,95.4592,VALID,0,VALID,22.7199,VALID,354,VALID,0.0402344,
2008-06-29, 03:20:04,VALID,1008.78,VALID,0,VALID,95.4744,VALID,0,VALID,22.7199,VALID,354,VALID,0.131641,
2008-06-29, 03:21:04,VALID,1008.78,VALID,0,VALID,95.4821,VALID,0,VALID,22.7199,VALID,354,VALID,0.251953,
2008-06-29, 03:22:04,VALID,1008.78,VALID,0,VALID,95.5049,VALID,0,VALID,22.7182,VALID,354,VALID,0.180469,
2008-06-29, 03:23:04,VALID,1008.77,VALID,0,VALID,95.4973,VALID,0,VALID,22.7199,VALID,354,VALID,0.162109,
2008-06-29, 03:24:04,VALID,1008.81,VALID,0,VALID,95.4897,VALID,0,VALID,22.7411,VALID,354,VALID,0.236719,
2008-06-29, 03:25:04,VALID,1008.81,VALID,0,VALID,95.5049,VALID,0,VALID,22.7199,VALID,354,VALID,0.23125,
2008-06-29, 03:26:04,VALID,1008.81,VALID,0,VALID,95.4973,VALID,0,VALID,22.7411,VALID,354,VALID,0.113281,
2008-06-29, 03:27:04,VALID,1008.81,VALID,0,VALID,95.4668,VALID,0,VALID,22.7004,VALID,354,VALID,0.0703125,
2008-06-29, 03:28:04,VALID,1008.82,VALID,0,VALID,95.4897,VALID,0,VALID,22.7199,VALID,354,VALID,0,
2008-06-29, 03:29:04,VALID,1008.82,VALID,0,VALID,95.5049,VALID,0,VALID,22.7004,VALID,354,VALID,0.132031,
2008-06-29, 03:30:04,VALID,1008.83,VALID,0,VALID,95.5049,VALID,0,VALID,22.7199,VALID,354,VALID,0.126172,
2008-06-29, 03:31:04,VALID,1008.79,VALID,0,VALID,95.5126,VALID,0,VALID,22.7004,VALID,354,VALID,0.0417969,
2008-06-29, 03:32:04,VALID,1008.81,VALID,0,VALID,95.5202,VALID,0,VALID,22.7004,VALID,354,VALID,0.125,
2008-06-29, 03:33:04,VALID,1008.8,VALID,0,VALID,95.5431,VALID,0,VALID,22.7199,VALID,354,VALID,0.233594,
2008-06-29, 03:34:04,VALID,1008.81,VALID,0,VALID,95.5278,VALID,0.105969,VALID,22.7004,VALID,354,VALID,0.235938,
2008-06-29, 03:35:04,VALID,1008.85,VALID,0,VALID,95.5354,VALID,0,VALID,22.7004,VALID,354,VALID,0.110547,
2008-06-29, 03:36:04,VALID,1008.85,VALID,0,VALID,95.5278,VALID,0,VALID,22.6809,VALID,354,VALID,0.199219,
2008-06-29, 03:37:04,VALID,1008.86,VALID,0,VALID,95.5202,VALID,0,VALID,22.6809,VALID,354,VALID,0.164453,
2008-06-29, 03:38:04,VALID,1008.92,VALID,0,VALID,95.5049,VALID,0,VALID,22.6614,VALID,354,VALID,0,
2008-06-29, 03:39:04,VALID,1008.92,VALID,0,VALID,95.4821,VALID,0,VALID,22.6614,VALID,354,VALID,0.00117188,
2008-06-29, 03:40:04,VALID,1008.93,VALID,0,VALID,95.4973,VALID,0,VALID,22.6402,VALID,354,VALID,0.135156,
2008-06-29, 03:41:04,VALID,1008.96,VALID,0,VALID,95.5202,VALID,0,VALID,22.6614,VALID,354,VALID,0.0851562,
2008-06-29, 03:42:04,VALID,1008.97,VALID,0,VALID,95.5583,VALID,0,VALID,22.6614,VALID,354,VALID,0,
2008-06-29, 03:43:04,VALID,1008.96,VALID,0,VALID,95.5736,VALID,0,VALID,22.6597,VALID,354,VALID,0,
2008-06-29, 03:44:04,VALID,1008.97,VALID,0,VALID,95.6193,VALID,0,VALID,22.7004,VALID,354,VALID,0.0644531,
2008-06-29, 03:45:04,VALID,1008.97,VALID,0,VALID,95.6498,VALID,0,VALID,22.7199,VALID,354,VALID,0.300391,
2008-06-29, 03:46:04,VALID,1008.97,VALID,0,VALID,95.6498,VALID,0,VALID,22.7394,VALID,355,VALID,0.351172,
2008-06-29, 03:47:04,VALID,1008.95,VALID,0,VALID,95.688,VALID,0,VALID,22.7588,VALID,359,VALID,0.406641,